Flag for U.S.A. Weather past 2 weeks in St. Paul, Minnesota, U.S.A.

Now
63 °F

Overcast.


Feels Like: 63 °F
Forecast: 58 / 76 °F
Wind: 6 mph from Northwest

Location: St. Paul Downtown Holman Field

Current Time: Jul 28, 2014 at 7:34:11 AM

Latest Report: Jul 28, 2014 at 6:53 AM


Visibility: 10 mi

Pressure: 30.17 "Hg

Humidity: 78%

Dew point: 56 °F

Location of St. PaulLocation

Historic Weather in St. Paul — Graph

°F

St. Paul temperature yesterday

Maximum temperature yesterday: 75 °F (at 1:53 PM)
Minimum temperature yesterday: 64 °F (at 10:53 PM)
Average temperature yesterday: 69 °F

Past Weeks' High & Low Weather Summary

 TemperatureHumidityPressure
High89 °F (Jul 21, 3:53 PM)97% (Jul 26, 5:53 AM)30.24 "Hg (Jul 26, 5:53 AM)
Low53 °F (Jul 16, 5:53 AM)37% (Jul 16, 2:53 PM)29.74 "Hg (Jul 26, 5:53 PM)
Average71 °F67%29.95 "Hg
* Reported Jul 13 5:53 AM — Jul 28 5:53 AM, St. Paul, Weather by CustomWeather, © 2014

Note: Actual official high and low records may vary slightly from our data, if they occured in-between our weather recording intervals... More about our weather records

Advertising

St. Paul weather history for previous 24 hours

 ConditionsComfort  
Time TempWeatherWind HumidityBarometerVisibility
5:53 AM
Jul 28
63 °FOvercast.7 mph78%30.16 "Hg10 mi
4:53 AM63 °FPassing clouds.7 mph81%30.15 "Hg10 mi
3:53 AM63 °FOvercast.8 mph81%30.14 "Hg10 mi
2:53 AM64 °FOvercast.10 mph75%30.13 "Hg10 mi
1:53 AM64 °FOvercast.7 mph75%30.12 "Hg10 mi
12:53 AM64 °FOvercast.8 mph81%30.12 "Hg10 mi
11:53 PM
Jul 27
64 °FOvercast.3 mph75%30.11 "Hg10 mi
10:53 PM64 °FPassing clouds.5 mph75%30.11 "Hg10 mi
9:53 PM66 °FOvercast.6 mph73%30.09 "Hg10 mi
8:53 PM67 °FScattered clouds.12 mph68%30.06 "Hg10 mi
7:53 PM68 °FScattered clouds.12 mph70%30.03 "Hg10 mi
6:53 PM70 °FLight rain. Mostly cloudy.16 mph71%30.00 "Hg10 mi
5:53 PM73 °FPartly sunny.16 mph64%29.98 "Hg10 mi
4:53 PM73 °FPartly sunny.15 mph64%29.96 "Hg10 mi
3:53 PM75 °FScattered clouds.18 mph58%29.92 "Hg10 mi
2:53 PM71 °FLight rain. More clouds than sun.16 mph66%29.92 "Hg8 mi
1:53 PM75 °FPartly sunny.17 mph58%29.89 "Hg10 mi
12:53 PM70 °FLight rain. Mostly cloudy.21 mph64%29.89 "Hg10 mi
11:53 AM69 °FBroken clouds.15 mph76%29.87 "Hg10 mi
10:53 AM70 °FCloudy.20 mph61%29.85 "Hg10 mi
9:53 AM67 °FMostly cloudy.20 mph68%29.83 "Hg10 mi
8:53 AM67 °FPartly sunny.17 mph71%29.80 "Hg10 mi
7:53 AM66 °FPartly sunny.15 mph73%29.79 "Hg10 mi
Weather by CustomWeather, © 2014

See weather overviewHow to use our weather pages